Regional Weather Roundup
Issued by NWS Goodland, KS

Home | Current Version | Previous Version | Text Only | Print | Product List | Glossary Off
Versions: 1 2 3 4 5 6 7 8 9 10 11 12 13 14 15 16 17 18 19 20 21 22 23 24 25 26 27 28 29 30 31 32 33 34 35 36 37 38 39 40 41 42 43 44 45 46 47 48 49 50

000
ASUS43 KGLD 241908
RWRGLD

GOODLAND FORECAST AREA HOURLY WEATHER ROUNDUP
NATIONAL WEATHER SERVICE GOODLAND KS
100 PM MDT FRI OCT 24 2014

...OFFICIAL OBSERVATIONS...

CITY           SKY/WX    TMP DP  RH WIND       PRES   REMARKS
GOODLAND KS    MOSUNNY   85  29  13 VRB3      30.08F
HILL CITY KS   FAIR      87  37  17 N6        30.00F
IMPERIAL NEB   PTSUNNY   82  33  17 NW10      30.05F
MCCOOK NEB     MOSUNNY   82  40  22 SW9       30.01F
AKRON CO       SUNNY     79  28  15 W9        30.13F
BURLINGTON CO  MOSUNNY   84  20   9 VRB3      30.11F
LIMON CO       SUNNY     79  21  11 NE5       30.19F
$$

...UNOFFICIAL OBSERVATIONS...

CITY           SKY/WX    TMP DP  RH WIND       PRES   REMARKS
COLBY KS       SUNNY     88  43  20 CALM      30.05F
NORTON KS      SUNNY     86  21   9 NW10      29.99F
SHARON SPRINGS   N/A     86  40  19 CALM        N/A
KIT CARSON CO    N/A     83  34  17 CALM        N/A
YUMA CO          N/A     82  28  14 W12         N/A
$$



USA.gov is the U.S. government's official web portal to all federal, state and local government web resources and services.